Location: Aulus
(42.7909°N, 1.3399°E)
Time: 07:16:02
(UTC+00:00)

deb Kosmos- 1980 - Pass Details

Date: 17 October 2025
Orbit: 834 x 854 km, 71.0° (Epoch: 17 November)

Event Time Altitude Azimuth Distance (km) Brightness Sun altitude
Rises 19:39:57 0° 339° (NNW) 3,401 ? -28.4°
Reaches altitude 10° 19:42:30 10° 345° (NNW) 2,460 ? -28.8°
Enters shadow 19:45:50 33° 7° (N) 1,387 ? -29.4°
